This is the latest recevied weather packets stored in our database for station/object K6HN. If no packets are shown the sender has not sent any weather packets the latest 10 day(s).
| Time | Temp. | Humidity | Pressure | Rain* | Wind** | Luminosity | Snow |
|---|---|---|---|---|---|---|---|
| 1777772579 | 11.67° C | 51% | 997.3 hPa | 0 mm | - | - | - |
| 1777771679 | 11.67° C | 51% | 997.3 hPa | 0 mm | - | - | - |
| 1777770779 | 12.22° C | 51% | 997.3 hPa | 0 mm | - | - | - |
| 1777769879 | 12.22° C | 51% | 997.6 hPa | 0 mm | - | - | - |
| 1777768979 | 12.22° C | 51% | 997.3 hPa | 0 mm | - | - | - |
| 1777768079 | 12.78° C | 51% | 997.6 hPa | 0 mm | - | - | - |
| 1777767179 | 12.78° C | 51% | 997.6 hPa | 0 mm | - | - | - |
| 1777766279 | 12.78° C | 51% | 997.6 hPa | 0 mm | - | - | - |
| 1777765379 | 12.78° C | 51% | 998 hPa | 0 mm | - | - | - |
| 1777764479 | 12.78° C | 50% | 997.6 hPa | 0 mm | - | - | - |
| 1777763579 | 13.33° C | 51% | 998 hPa | 0 mm | - | - | - |
| 1777762679 | 12.78° C | 49% | 998.3 hPa | 0 mm | - | - | - |
| 1777761779 | 12.78° C | 51% | 998.6 hPa | 0 mm | - | - | - |
| 1777760879 | 12.78° C | 50% | 999 hPa | 0 mm | - | - | - |
| 1777759979 | 13.33° C | 51% | 999 hPa | 0 mm | - | - | - |
| 1777759079 | 13.89° C | 51% | 999 hPa | 0 mm | - | - | - |
| 1777758179 | 13.33° C | 51% | 999 hPa | 0 mm | - | - | - |
| 1777757279 | 12.78° C | 51% | 999.3 hPa | 0 mm | - | - | - |
| 1777756379 | 12.78° C | 51% | 999.3 hPa | 0 mm | - | - | - |
| 1777755479 | 13.33° C | 50% | 999.3 hPa | 0 mm | - | - | - |
| 1777754579 | 13.33° C | 52% | 999.7 hPa | 0 mm | - | - | - |
| 1777753679 | 13.33° C | 50% | 999.7 hPa | 0 mm | - | - | - |
| 1777752779 | 13.33° C | 51% | 999.7 hPa | 0 mm | - | - | - |
| 1777751879 | 12.78° C | 51% | 1000 hPa | 0 mm | - | - | - |
| 1777750979 | 12.78° C | 51% | 999.7 hPa | 0 mm | - | - | - |
* Rain latest hour (hover to see other rain measurements)
** Current wind speed in m/s (hover to see current wind gust speed)